Погода в Мякишеве

Россия / Псковская область     56°34′05″N   28°54′39″E
темп.,
°C
ветер,
м/с
пор.,
м/с
влажн.,
%
обл.,
%
осадки,
мм/ч
давл.,
гПа
погр.,
м
20 июня, вс
вс2000:00+17ююв26860 0.0 1021102
03:00+16ююв25960 0.0 102195
06:00+18ююв25920 0.0 1020148
09:00+25ююз35645 0.0 1020642
12:00+29ююз35470 0.0 10191812
15:00+31юз353971 0.0 10182657
18:00+26ю116570 0.0 101852
21:00+24ю227164 0.0 101732
21 июня, пн
пн2100:00+20ю26911 0.3 1018139
03:00+18ююв24965 0.3 101982
06:00+19ююв269129 0.0 1019171
09:00+24ююв356574 0.0 1018485
12:00+29ююв354463 0.0 10171236
15:00+31юв453568 0.0 10161786
18:00+29ююв364691 0.0 1016844
21:00+23ююв287083 0.0 1016193
22 июня, вт
вт2200:00+19юв398316 0.0 1016181
03:00+18юв398718 0.0 1016210
06:00+19юв398885 0.0 1016250
09:00+24ююв4869100 0.0 1016680
12:00+28ююв5850100 0.0 10151669
15:00+31ююв58405 0.0 10142264
18:00+30ююв4747100 0.0 10142200
21:00+25ююв397025 0.0 1015300
23 июня, ср
ср2300:00+22ююв298397 0.3 1016205
03:00+20ююв259670 0.4 1016118
06:00+21юв278859 0.0 1016227
09:00+26ю35605 0.0 1017643
12:00+30ю46365 0.0 10171578
15:00+32ююз46310 0.0 10162195
18:00+32ююз45408 0.0 10162332
21:00+25ююз127186 0.0 101719
24 июня, чт
чт2400:00+21ююв239285 0.8 101850
03:00+21ююв24965 0.8 101777
06:00+21ю249410 0.0 1017118
09:00+27ю24699 0.0 1017493
12:00+32ю35465 0.0 10171943
15:00+34ююз463425 0.0 10163190
18:00+32ю57399 0.0 10151264
21:00+20ссз61295100 1.5 1018425